Home > Weather > Tórshavn > Past weeks

Flag for Faroe Islands Past Weather in Tórshavn, Faroe Islands — Yesterday and Last 2 Weeks

Now
50 °F

Rain showers. Partly sunny.


Feels Like: 46 °F
Forecast: 49 / 56 °F
Wind: 9 mph from Southwest

Location: Soervaag / Vagar

Current Time: Jun 28, 2016 at 9:02:42 AM

Latest Report: Jun 28, 2016 at 8:20 AM


Visibility: N/A

Pressure: 29.56 "Hg

Humidity: 94%

Dew Point: 48 °F

Location of TórshavnLocation

Past Weather in Tórshavn — Graph

°F

Tórshavn Temperature Yesterday

Maximum temperature yesterday: 54 °F (at 12:20 PM)
Minimum temperature yesterday: 48 °F (at 3:20 AM)
Average temperature yesterday: 50 °F

High & Low Weather Summary for the Past Weeks

 TemperatureHumidityPressure
High59 °F (Jun 14, 2:20 PM)100% (Jun 13, 7:50 PM)30.15 "Hg (Jun 13, 7:50 PM)
Low41 °F (Jun 17, 12:20 AM)44% (Jun 14, 8:50 PM)29.36 "Hg (Jun 20, 5:50 AM)
Average50 °F85%29.83 "Hg
* Reported Jun 13 7:20 AM — Jun 28 7:50 AM, Tórshavn, Weather by CustomWeather, © 2016

Note: Actual official high and low records may vary slightly from our data, if they occured in-between our weather recording intervals... More about our weather records

Advertising

Tórshavn Weather History for the Previous 24 Hours

Scroll right to see more
 ConditionsComfort  
Time TempWeatherWind HumidityBarometerVisibility
7:50 AM
Tue, Jun 28
50 °FSprinkles. Partly sunny.14 mph88%29.56 "Hg5 mi
7:20 AM48 °FSprinkles. Partly sunny.7 mph100%29.56 "Hg4 mi
6:50 AM48 °FLow clouds.12 mph100%29.56 "HgN/A
6:20 AM48 °FSprinkles. Partly sunny.8 mph94%29.56 "Hg4 mi
5:50 AM48 °FSprinkles. Low clouds.5 mph100%29.56 "Hg6 mi
5:20 AM48 °FDrizzle. Partly sunny.12 mph94%29.56 "HgN/A
4:50 AM48 °FPartly sunny.7 mph94%29.56 "HgN/A
4:20 AM48 °FPassing clouds.12 mph100%29.56 "HgN/A
3:50 AM48 °FPassing clouds.10 mph100%29.56 "HgN/A
3:20 AM48 °FLow clouds.10 mph100%29.56 "HgN/A
2:50 AM48 °FPassing clouds.5 mph100%29.56 "HgN/A
2:20 AM48 °FPassing clouds.8 mph94%29.56 "HgN/A
1:50 AM48 °FLow clouds.9 mph94%29.56 "HgN/A
1:20 AM48 °FPartly cloudy.9 mph94%29.56 "HgN/A
12:50 AM48 °FLow clouds.10 mph100%29.59 "HgN/A
12:20 AM50 °FPartly sunny.10 mph94%29.56 "HgN/A
11:50 PM
Mon, Jun 27
50 °FPartly sunny.12 mph94%29.56 "HgN/A
11:20 PM50 °FPartly sunny.8 mph94%29.56 "HgN/A
10:50 PM48 °FPartly sunny.9 mph100%29.56 "HgN/A
10:20 PM48 °FPartly sunny.10 mph100%29.56 "HgN/A
9:50 PM48 °FPartly sunny.10 mph100%29.56 "HgN/A
9:20 PM48 °FPartly sunny.9 mph100%29.56 "HgN/A
8:50 PM48 °FSprinkles. Partly sunny.8 mph100%29.56 "Hg3 mi
8:20 PM48 °FPartly sunny.10 mph100%29.56 "HgN/A
7:50 PM50 °FPartly sunny.8 mph94%29.59 "HgN/A
7:20 PM50 °FPartly sunny.8 mph88%29.59 "HgN/A
6:50 PM50 °FBroken clouds.8 mph94%29.59 "HgN/A
6:20 PM52 °FPartly sunny.9 mph88%29.59 "HgN/A
5:50 PM52 °FPartly sunny.7 mph88%29.59 "HgN/A
5:20 PM50 °FPartly sunny.9 mph94%29.59 "HgN/A
4:50 PM52 °FPartly sunny.10 mph88%29.59 "HgN/A
4:20 PM52 °FPartly sunny.12 mph88%29.59 "HgN/A
3:50 PM54 °FPartly sunny.10 mph82%29.59 "HgN/A
3:20 PM54 °FScattered clouds.10 mph82%29.59 "HgN/A
2:50 PM54 °FCool.13 mph77%29.59 "HgN/A
2:20 PM54 °FPassing clouds.14 mph82%29.59 "HgN/A
1:50 PM54 °FPartly sunny.12 mph77%29.59 "HgN/A
1:20 PM54 °FPartly sunny.13 mph82%29.59 "HgN/A
12:50 PM54 °FPartly sunny.13 mph82%29.59 "HgN/A
12:20 PM54 °FPartly sunny.13 mph82%29.59 "HgN/A
11:50 AM52 °FPartly sunny.13 mph88%29.59 "HgN/A
11:20 AM52 °FPartly sunny.14 mph88%29.59 "HgN/A
10:50 AM50 °FPartly sunny.10 mph94%29.59 "HgN/A
10:20 AM50 °FPartly sunny.8 mph94%29.59 "HgN/A
9:50 AM52 °FPartly sunny.7 mph88%29.59 "HgN/A
9:20 AM50 °FPartly sunny.5 mph94%29.59 "HgN/A
Weather by CustomWeather, © 2016

See weather overviewHow to use our weather pages